Mit webcam er opstillet i Qinngorput og har retning mod den sydlige del af Nuuk. Billedet opdateres automatisk fra min Raspberry Pi.

 

 

BGGH 230750Z AUTO 18011KT 9999NDV OVC015/// M01/M05 Q0996